{"data":{"norad_id":43058,"epoch":"2026-09-19T00:20:09.064320Z","epoch_age_seconds":142916,"freshness":"FRESH","line1":"1 43058U 17079D   26262.01399380  .00000017  00000+0  00000+0 0  9991","line2":"2 43058  55.0505 218.9215 0004890 286.1652  73.7546  1.70474004 54616","mean_motion":1.70474004,"eccentricity":0.000489,"inclination_deg":55.0505,"raan_deg":218.9215,"arg_perigee_deg":286.1652,"mean_anomaly_deg":73.7546,"bstar":0,"rev_number":5461,"period_min":844.70357134335,"perigee_km":23207.708038256,"apogee_km":23236.657150819,"semimajor_km":29600.319594537,"source":"CELESTRAK","updated_at":"2026-09-20T09:00:46.496728Z"}}